Date,TemperatureHighF,TemperatureAvgF,TemperatureLowF,DewpointHighF,DewpointAvgF,DewpointLowF,HumidityHigh,HumidityAvg,HumidityLow,PressureMaxIn,PressureMinIn,WindSpeedMaxMPH,WindSpeedAvgMPH,GustSpeedMaxMPH,PrecipitationSumIn
2013-9-1,88.0,75.7,64.6,49.6,42.9,35.3,43,32,25,30.13,29.99,0,-999,0,0.00
2013-9-2,85.5,75.3,66.7,54.7,49.8,45.0,52,41,32,30.09,29.99,0,-999,0,0.00
2013-9-3,89.4,74.0,60.8,55.6,49.9,45.6,62,45,27,30.13,30.02,0,-999,0,0.00
2013-9-4,90.3,71.9,61.3,53.9,47.4,43.8,54,43,26,30.17,30.03,0,-999,0,0.00
2013-9-5,84.7,72.0,57.7,48.2,41.7,34.5,52,35,23,30.13,30.03,0,-999,0,0.00
2013-9-6,84.4,69.1,52.9,42.2,36.1,31.3,44,31,20,30.23,30.05,0,-999,0,0.00
2013-9-7,87.1,70.6,54.5,41.5,35.8,31.8,44,30,18,30.16,30.01,0,-999,0,0.00
2013-9-8,87.4,71.1,55.4,42.2,35.6,31.1,42,29,16,30.15,29.98,0,-999,0,0.00
2013-9-9,85.1,71.1,56.8,41.8,34.5,30.2,39,27,17,30.13,29.97,0,-999,0,0.00
2013-9-10,84.9,70.2,54.7,41.0,33.1,27.4,37,26,17,30.10,29.97,0,-999,0,0.00
2013-9-11,85.5,71.1,57.9,43.0,35.8,28.9,40,29,18,30.15,30.04,0,-999,0,0.00
2013-9-12,84.0,69.6,59.4,65.5,48.3,37.5,96,52,29,30.14,30.02,0,-999,0,0.00
2013-9-13,85.1,68.9,55.9,70.8,57.5,48.0,95,71,37,30.11,29.95,0,-999,0,0.00
2013-9-14,86.0,70.5,56.3,54.7,48.7,44.8,66,48,27,30.02,29.88,0,-999,0,0.00
2013-9-15,86.9,71.9,58.6,51.3,44.1,35.4,57,39,23,29.98,29.90,0,-999,0,0.00
2013-9-16,86.0,69.4,52.9,43.9,38.4,33.4,49,34,20,30.03,29.88,0,-999,0,0.00
2013-9-17,77.0,65.7,55.4,42.6,34.8,27.7,47,33,18,30.05,29.81,0,-999,0,0.00
2013-9-18,70.7,58.1,45.0,39.9,34.1,28.7,56,42,27,30.16,30.02,0,-999,0,0.00
2013-9-19,76.6,60.3,43.7,34.0,29.2,25.0,49,33,18,30.15,29.97,0,-999,0,0.00
2013-9-20,80.8,63.2,47.3,37.2,29.7,24.7,43,30,18,30.00,29.83,0,-999,0,0.00
2013-9-21,69.6,55.9,49.6,41.8,33.8,26.1,53,44,30,29.90,29.78,0,-999,0,0.00
2013-9-22,69.1,55.4,42.8,39.3,34.6,29.4,61,47,32,30.10,29.90,0,-999,0,0.00
2013-9-23,75.6,59.0,43.3,42.7,34.9,27.1,62,43,23,30.17,30.02,0,-999,0,0.00
2013-9-24,73.0,61.1,48.9,39.2,30.7,24.7,44,33,21,30.06,29.83,0,-999,0,0.00
2013-9-25,61.9,51.3,43.7,30.3,28.4,25.5,53,42,29,29.92,29.82,0,-999,0,0.00
2013-9-26,54.7,46.7,38.5,32.3,27.7,23.8,58,48,37,30.13,29.91,0,-999,0,0.00
2013-9-27,61.7,48.2,34.3,33.0,26.7,20.8,59,44,30,30.25,30.13,0,-999,0,0.00
2013-9-28,73.8,55.7,39.6,39.4,31.0,23.4,54,40,27,30.23,30.09,0,-999,0,0.00
2013-9-29,73.9,63.5,54.9,37.7,32.8,30.0,39,32,22,30.13,30.03,0,-999,0,0.00
2013-9-30,70.7,60.5,51.8,43.5,37.1,32.1,50,42,36,30.11,30.03,0,-999,0,0.00